| time (UTC) | temp F | wind direction | speed MPH | gust MPH | rain 1hr in | rain 24hr in | rain mn in | humidity % | barometer mb |
| 20260901043603 | 62 | 93 | 6.0 | 12.0 | 0.00 | 0.05 | 0.05 | 28 | 1021.9 |
| 20260901042703 | 62 | 91 | 5.0 | 10.0 | 0.00 | 0.05 | 0.05 | 29 | 1022.0 |
| 20260901041803 | 62 | 83 | 5.0 | 10.0 | 0.00 | 0.05 | 0.05 | 29 | 1022.0 |
| 20260901040903 | 61 | 82 | 5.0 | 9.0 | 0.00 | 0.05 | 0.05 | 29 | 1022.1 |
| 20260901040003 | 61 | 67 | 5.0 | 8.0 | 0.00 | 0.05 | 0.05 | 29 | 1022.2 |
| 20260901035403 | 61 | 72 | 5.0 | 9.0 | 0.00 | 0.05 | 0.05 | 29 | 1022.2 |
| 20260901034503 | 62 | 121 | 3.0 | 6.0 | 0.00 | 0.05 | 0.05 | 30 | 1022.2 |
| 20260901033603 | 62 | 164 | 4.0 | 11.0 | 0.00 | 0.05 | 0.05 | 29 | 1022.1 |
| 20260901032703 | 62 | 178 | 6.0 | 14.0 | 0.00 | 0.05 | 0.05 | 29 | 1022.0 |
| 20260901031803 | 62 | 175 | 7.0 | 14.0 | 0.00 | 0.05 | 0.05 | 28 | 1021.9 |
| 20260901030903 | 62 | 168 | 7.0 | 14.0 | 0.00 | 0.05 | 0.05 | 26 | 1021.8 |
| 20260901030003 | 62 | 150 | 6.0 | 12.0 | 0.00 | 0.05 | 0.05 | 26 | 1021.7 |
| 20260901025403 | 62 | 139 | 4.0 | 8.0 | 0.00 | 0.05 | 0.05 | 26 | 1021.6 |
| 20260901024503 | 62 | 114 | 3.0 | 7.0 | 0.00 | 0.05 | 0.05 | 26 | 1021.5 |
| 20260901023603 | 62 | 122 | 3.0 | 7.0 | 0.00 | 0.05 | 0.05 | 26 | 1021.4 |
| 20260901022703 | 62 | 120 | 3.0 | 7.0 | 0.00 | 0.05 | 0.05 | 26 | 1021.5 |
| 20260901021824 | 62 | 102 | 4.0 | 7.0 | 0.00 | 0.05 | 0.05 | 26 | 1021.4 |
| 20260901020903 | 62 | 71 | 6.0 | 11.0 | 0.00 | 0.05 | 0.05 | 26 | 1021.6 |
| 20260901020003 | 63 | 60 | 5.0 | 11.0 | 0.00 | 0.05 | 0.05 | 26 | 1021.6 |
| 20260901015424 | 63 | 64 | 5.0 | 11.0 | 0.00 | 0.05 | 0.05 | 26 | 1021.8 |
| 20260901014503 | 62 | 79 | 6.0 | 10.0 | 0.00 | 0.05 | 0.05 | 27 | 1022.2 |
| 20260901013603 | 62 | 93 | 6.0 | 10.0 | 0.01 | 0.05 | 0.05 | 27 | 1022.3 |
| 20260901012703 | 62 | 95 | 7.0 | 14.0 | 0.02 | 0.05 | 0.05 | 28 | 1022.3 |
| 20260901011803 | 62 | 90 | 7.0 | 13.0 | 0.03 | 0.05 | 0.05 | 28 | 1022.5 |
| 20260901010903 | 62 | 75 | 6.0 | 13.0 | 0.03 | 0.05 | 0.05 | 28 | 1022.8 |
| 20260901010003 | 62 | 78 | 3.0 | 7.0 | 0.04 | 0.05 | 0.05 | 29 | 1023.0 |
| 20260901005403 | 63 | 95 | 5.0 | 10.0 | 0.04 | 0.05 | 0.05 | 31 | 1023.1 |
| 20260901004503 | 63 | 147 | 6.0 | 11.0 | 0.04 | 0.05 | 0.05 | 33 | 1023.2 |
| 20260901003603 | 63 | 160 | 5.0 | 12.0 | 0.04 | 0.04 | 0.04 | 35 | 1023.2 |
| 20260901002703 | 64 | 165 | 3.0 | 7.0 | 0.03 | 0.03 | 0.03 | 38 | 1023.4 |
| 20260901001803 | 65 | 181 | 3.0 | 9.0 | 0.02 | 0.02 | 0.02 | 42 | 1023.4 |
| 20260901000903 | 66 | 339 | 4.0 | 7.0 | 0.02 | 0.02 | 0.02 | 44 | 1023.4 |
| 20260901000024 | 66 | 152 | 3.0 | 11.0 | 0.01 | 0.01 | 0.01 | 46 | 1023.4 |
| 20260831235403 | 66 | 136 | 4.0 | 11.0 | 0.01 | 0.01 | 0.01 | 49 | 1023.3 |
| 20260831234524 | 68 | 140 | 9.0 | 16.0 | 0.01 | 0.01 | 0.01 | 51 | 1023.2 |
| 20260831233603 | 68 | 168 | 9.0 | 19.0 | 0.00 | 0.00 | 0.00 | 52 | 1022.6 |
| 20260831232703 | 69 | 164 | 9.0 | 19.0 | 0.00 | 0.00 | 0.00 | 52 | 1022.1 |
| 20260831231803 | 69 | 155 | 14.0 | 29.0 | 0.00 | 0.00 | 0.00 | 51 | 1021.9 |
| 20260831230924 | 71 | 150 | 16.0 | 30.0 | 0.00 | 0.00 | 0.00 | 49 | 1021.6 |
| 20260831230003 | 72 | 158 | 17.0 | 30.0 | 0.00 | 0.00 | 0.00 | 48 | 1020.7 |
| 20260831225403 | 74 | 135 | 18.0 | 30.0 | 0.00 | 0.00 | 0.00 | 45 | 1020.2 |
| 20260831224524 | 76 | 118 | 12.0 | 28.0 | 0.00 | 0.00 | 0.00 | 49 | 1019.2 |
| 20260831223603 | 76 | 98 | 13.0 | 28.0 | 0.00 | 0.00 | 0.00 | 45 | 1018.3 |
| 20260831222703 | 76 | 100 | 12.0 | 24.0 | 0.00 | 0.00 | 0.00 | 46 | 1018.0 |
| 20260831221803 | 75 | 107 | 12.0 | 26.0 | 0.00 | 0.01 | 0.00 | 48 | 1018.0 |
| 20260831220903 | 75 | 124 | 14.0 | 27.0 | 0.00 | 0.01 | 0.00 | 49 | 1017.8 |
| 20260831220003 | 76 | 127 | 14.0 | 27.0 | 0.00 | 0.01 | 0.00 | 50 | 1017.7 |
| 20260831215403 | 76 | 129 | 17.0 | 27.0 | 0.00 | 0.01 | 0.00 | 51 | 1017.6 |
| 20260831214503 | 78 | 117 | 11.0 | 21.0 | 0.00 | 0.01 | 0.00 | 49 | 1017.5 |
| 20260831213603 | 78 | 120 | 12.0 | 23.0 | 0.00 | 0.01 | 0.00 | 49 | 1017.7 |
| 20260831212703 | 79 | 119 | 11.0 | 22.0 | 0.00 | 0.01 | 0.00 | 49 | 1017.8 |
| 20260831211803 | 81 | 112 | 7.0 | 13.0 | 0.00 | 0.01 | 0.00 | 46 | 1017.8 |
| 20260831210903 | 83 | 111 | 6.0 | 12.0 | 0.00 | 0.01 | 0.00 | 42 | 1017.8 |
| 20260831210024 | 84 | 91 | 6.0 | 12.0 | 0.00 | 0.01 | 0.00 | 40 | 1017.7 |
| 20260831205424 | 83 | 89 | 5.0 | 11.0 | 0.00 | 0.01 | 0.00 | 40 | 1017.8 |
| 20260831204503 | 83 | 86 | 7.0 | 12.0 | 0.00 | 0.01 | 0.00 | 39 | 1018.0 |
| 20260831203603 | 82 | 93 | 8.0 | 12.0 | 0.00 | 0.01 | 0.00 | 39 | 1018.2 |
| 20260831202703 | 82 | 100 | 7.0 | 15.0 | 0.00 | 0.01 | 0.00 | 37 | 1018.3 |
| 20260831201803 | 82 | 91 | 8.0 | 15.0 | 0.00 | 0.01 | 0.00 | 39 | 1018.3 |
| 20260831200903 | 82 | 91 | 6.0 | 15.0 | 0.00 | 0.01 | 0.00 | 39 | 1018.4 |
| 20260831200024 | 82 | 80 | 6.0 | 11.0 | 0.00 | 0.01 | 0.00 | 42 | 1018.6 |
| 20260831195403 | 81 | 85 | 6.0 | 12.0 | 0.00 | 0.01 | 0.00 | 41 | 1018.7 |
| 20260831194503 | 82 | 88 | 7.0 | 12.0 | 0.00 | 0.01 | 0.00 | 41 | 1018.9 |
| 20260831193624 | 82 | 95 | 7.0 | 13.0 | 0.00 | 0.01 | 0.00 | 42 | 1019.1 |
| 20260831192724 | 82 | 95 | 7.0 | 13.0 | 0.00 | 0.01 | 0.00 | 43 | 1019.3 |
| 20260831191803 | 81 | 90 | 7.0 | 10.0 | 0.00 | 0.01 | 0.00 | 44 | 1019.5 |
| 20260831190903 | 80 | 92 | 5.0 | 11.0 | 0.00 | 0.01 | 0.00 | 44 | 1019.5 |
| 20260831190003 | 79 | 84 | 5.0 | 9.0 | 0.00 | 0.01 | 0.00 | 47 | 1019.7 |
| 20260831185403 | 78 | 105 | 4.0 | 8.0 | 0.00 | 0.01 | 0.00 | 46 | 1019.8 |
| 20260831184524 | 78 | 87 | 5.0 | 9.0 | 0.00 | 0.01 | 0.00 | 46 | 1019.9 |
| 20260831183603 | 76 | 86 | 5.0 | 8.0 | 0.00 | 0.56 | 0.00 | 48 | 1020.1 |
| 20260831182703 | 76 | 98 | 4.0 | 8.0 | 0.00 | 1.20 | 0.00 | 47 | 1020.2 |
| 20260831181803 | 76 | 119 | 4.0 | 9.0 | 0.00 | 1.20 | 0.00 | 47 | 1020.5 |
| 20260831180903 | 75 | 112 | 6.0 | 8.0 | 0.00 | 1.20 | 0.00 | 47 | 1020.5 |
| 20260831180003 | 76 | 118 | 6.0 | 9.0 | 0.00 | 1.20 | 0.00 | 46 | 1020.6 |
| 20260831175403 | 76 | 102 | 4.0 | 9.0 | 0.00 | 1.20 | 0.00 | 46 | 1020.7 |
| 20260831174523 | 75 | 68 | 6.0 | 11.0 | 0.00 | 1.20 | 0.00 | 47 | 1020.7 |
| 20260831173602 | 74 | 77 | 5.0 | 8.0 | 0.00 | 1.20 | 0.00 | 47 | 1020.9 |
| 20260831172702 | 74 | 72 | 4.0 | 8.0 | 0.00 | 1.21 | 0.00 | 47 | 1020.9 |
| 20260831171802 | 73 | 99 | 4.0 | 10.0 | 0.00 | 1.39 | 0.00 | 47 | 1021.0 |
| 20260831170902 | 73 | 108 | 6.0 | 11.0 | 0.00 | 1.39 | 0.00 | 47 | 1021.1 |
| 20260831170002 | 72 | 95 | 5.0 | 11.0 | 0.00 | 1.39 | 0.00 | 46 | 1021.1 |
| 20260831165402 | 72 | 89 | 5.0 | 11.0 | 0.00 | 1.39 | 0.00 | 47 | 1021.0 |
| 20260831164502 | 71 | 97 | 6.0 | 11.0 | 0.00 | 1.39 | 0.00 | 47 | 1021.1 |
| 20260831163623 | 71 | 91 | 7.0 | 12.0 | 0.00 | 1.39 | 0.00 | 47 | 1021.0 |
| 20260831162723 | 71 | 90 | 5.0 | 11.0 | 0.00 | 1.39 | 0.00 | 47 | 1020.9 |
| 20260831161802 | 71 | 93 | 4.0 | 9.0 | 0.00 | 1.39 | 0.00 | 47 | 1020.7 |
| 20260831160902 | 72 | 103 | 5.0 | 9.0 | 0.00 | 1.39 | 0.00 | 46 | 1020.7 |
| 20260831160002 | 72 | 87 | 3.0 | 8.0 | 0.00 | 1.39 | 0.00 | 45 | 1020.5 |
| 20260831155402 | 71 | 91 | 3.0 | 8.0 | 0.00 | 1.39 | 0.00 | 44 | 1020.5 |
| 20260831154502 | 70 | 111 | 4.0 | 7.0 | 0.00 | 1.39 | 0.00 | 42 | 1020.4 |
| 20260831153602 | 70 | 111 | 3.0 | 7.0 | 0.00 | 1.39 | 0.00 | 39 | 1020.4 |
| 20260831152702 | 69 | 120 | 3.0 | 6.0 | 0.00 | 1.39 | 0.00 | 37 | 1020.5 |
| 20260831151802 | 69 | 133 | 3.0 | 7.0 | 0.00 | 1.39 | 0.00 | 35 | 1020.5 |
| 20260831150902 | 68 | 136 | 3.0 | 6.0 | 0.00 | 1.39 | 0.00 | 34 | 1020.6 |
| 20260831150002 | 67 | 123 | 3.0 | 5.0 | 0.00 | 1.57 | 0.00 | 34 | 1020.7 |
| 20260831145423 | 67 | 98 | 3.0 | 5.0 | 0.00 | 1.78 | 0.00 | 33 | 1020.8 |
| 20260831144502 | 66 | 68 | 2.0 | 4.0 | 0.00 | 1.80 | 0.00 | 31 | 1020.8 |
| 20260831143602 | 65 | 44 | 1.0 | 6.0 | 0.00 | 1.82 | 0.00 | 28 | 1020.8 |
| 20260831142723 | 64 | 66 | 4.0 | 6.0 | 0.00 | 1.82 | 0.00 | 26 | 1020.9 |
| 20260831141823 | 62 | 86 | 3.0 | 5.0 | 0.00 | 1.82 | 0.00 | 24 | 1020.9 |
| 20260831140902 | 61 | 86 | 3.0 | 5.0 | 0.00 | 1.82 | 0.00 | 24 | 1020.9 |
| 20260831140002 | 60 | 86 | 2.0 | 4.0 | 0.00 | 1.82 | 0.00 | 24 | 1020.8 |
| 20260831135402 | 60 | 86 | 2.0 | 5.0 | 0.00 | 1.82 | 0.00 | 24 | 1020.6 |
| 20260831134502 | 60 | 86 | 1.0 | 5.0 | 0.00 | 1.82 | 0.00 | 24 | 1020.6 |
| 20260831133623 | 59 | 86 | 2.0 | 4.0 | 0.00 | 1.82 | 0.00 | 24 | 1020.5 |
| 20260831132702 | 59 | 86 | 2.0 | 4.0 | 0.00 | 1.88 | 0.00 | 24 | 1020.4 |
| 20260831131802 | 58 | 86 | 2.0 | 4.0 | 0.00 | 1.88 | 0.00 | 24 | 1020.2 |
| 20260831130902 | 58 | 86 | 2.0 | 4.0 | 0.00 | 1.88 | 0.00 | 25 | 1020.2 |
| 20260831130002 | 58 | 86 | 1.0 | 4.0 | 0.00 | 1.88 | 0.00 | 25 | 1020.2 |
| 20260831125402 | 58 | 86 | 1.0 | 3.0 | 0.00 | 1.88 | 0.00 | 25 | 1020.1 |
| 20260831124502 | 58 | 86 | 1.0 | 4.0 | 0.00 | 1.88 | 0.00 | 25 | 1020.1 |
| 20260831123602 | 58 | 65 | 3.0 | 5.0 | 0.00 | 1.88 | 0.00 | 25 | 1020.1 |
| 20260831122702 | 58 | 54 | 2.0 | 5.0 | 0.00 | 1.88 | 0.00 | 25 | 1020.1 |
| 20260831121802 | 58 | 143 | 1.0 | 4.0 | 0.00 | 1.88 | 0.00 | 25 | 1020.1 |
| 20260831120902 | 58 | 144 | 1.0 | 5.0 | 0.00 | 1.88 | 0.00 | 25 | 1020.1 |
| 20260831120023 | 58 | 131 | 2.0 | 5.0 | 0.00 | 1.88 | 0.00 | 25 | 1020.2 |
| 20260831115402 | 58 | 126 | 2.0 | 4.0 | 0.00 | 1.88 | 0.00 | 25 | 1020.2 |
| 20260831114523 | 58 | 126 | 2.0 | 4.0 | 0.00 | 1.88 | 0.00 | 25 | 1020.3 |
| 20260831113602 | 58 | 126 | 1.0 | 4.0 | 0.00 | 1.88 | 0.00 | 26 | 1020.4 |
| 20260831112723 | 58 | 126 | 2.0 | 6.0 | 0.00 | 1.88 | 0.00 | 26 | 1020.4 |
| 20260831111802 | 58 | 122 | 4.0 | 6.0 | 0.00 | 1.88 | 0.00 | 26 | 1020.4 |
| 20260831110902 | 58 | 81 | 3.0 | 6.0 | 0.00 | 1.88 | 0.00 | 26 | 1020.4 |
| 20260831110023 | 58 | 68 | 5.0 | 7.0 | 0.00 | 1.88 | 0.00 | 26 | 1020.4 |
| 20260831105402 | 58 | 74 | 4.0 | 6.0 | 0.00 | 1.88 | 0.00 | 26 | 1020.3 |
| 20260831104502 | 59 | 74 | 3.0 | 5.0 | 0.00 | 1.88 | 0.00 | 26 | 1020.3 |
| 20260831103602 | 59 | 72 | 3.0 | 5.0 | 0.00 | 1.88 | 0.00 | 26 | 1020.3 |
| 20260831102702 | 59 | 72 | 2.0 | 5.0 | 0.00 | 1.88 | 0.00 | 26 | 1020.2 |
| 20260831101802 | 59 | 0 | 0.0 | 1.0 | 0.00 | 1.88 | 0.00 | 26 | 1020.1 |
| 20260831100902 | 59 | 72 | 0.0 | 2.0 | 0.00 | 1.88 | 0.00 | 27 | 1019.9 |
| 20260831100002 | 59 | 72 | 0.0 | 2.0 | 0.00 | 1.88 | 0.00 | 27 | 1019.7 |
| 20260831095402 | 59 | 72 | 0.0 | 3.0 | 0.00 | 1.88 | 0.00 | 27 | 1019.7 |
| 20260831094502 | 59 | 72 | 1.0 | 4.0 | 0.00 | 1.88 | 0.00 | 28 | 1019.7 |
| 20260831093602 | 59 | 72 | 1.0 | 5.0 | 0.00 | 1.88 | 0.00 | 28 | 1019.7 |
| 20260831092702 | 59 | 72 | 1.0 | 5.0 | 0.00 | 1.88 | 0.00 | 28 | 1019.7 |
| 20260831091802 | 59 | 72 | 2.0 | 5.0 | 0.00 | 1.88 | 0.00 | 28 | 1019.7 |
| 20260831090902 | 59 | 72 | 1.0 | 5.0 | 0.00 | 1.88 | 0.00 | 28 | 1019.6 |
| 20260831090023 | 59 | 72 | 3.0 | 5.0 | 0.00 | 1.88 | 0.00 | 28 | 1019.7 |
| 20260831085402 | 59 | 72 | 1.0 | 4.0 | 0.00 | 1.88 | 0.00 | 29 | 1019.7 |
| 20260831084502 | 60 | 72 | 1.0 | 2.0 | 0.00 | 1.89 | 0.00 | 29 | 1019.7 |
| 20260831083602 | 60 | 72 | 2.0 | 4.0 | 0.00 | 1.90 | 0.00 | 29 | 1019.7 |
| 20260831082702 | 60 | 72 | 1.0 | 4.0 | 0.00 | 1.90 | 0.00 | 29 | 1019.8 |
| 20260831081802 | 60 | 0 | 0.0 | 0.0 | 0.00 | 1.90 | 0.00 | 30 | 1019.8 |
| 20260831080902 | 60 | 0 | 0.0 | 2.0 | 0.00 | 1.90 | 0.00 | 31 | 1019.8 |
| 20260831080002 | 60 | 72 | 0.0 | 2.0 | 0.00 | 1.90 | 0.00 | 31 | 1020.0 |
| 20260831075402 | 61 | 72 | 1.0 | 4.0 | 0.00 | 1.90 | 0.00 | 31 | 1020.1 |
| 20260831074502 | 61 | 71 | 3.0 | 6.0 | 0.00 | 1.90 | 0.00 | 30 | 1020.1 |
| 20260831073602 | 61 | 66 | 4.0 | 6.0 | 0.00 | 1.90 | 0.00 | 30 | 1020.1 |
| 20260831072702 | 62 | 60 | 3.0 | 6.0 | 0.00 | 1.90 | 0.00 | 30 | 1020.2 |
| 20260831071802 | 62 | 60 | 2.0 | 4.0 | 0.00 | 1.90 | 0.00 | 30 | 1020.2 |
| 20260831070902 | 62 | 58 | 1.0 | 6.0 | 0.00 | 1.91 | 0.00 | 31 | 1020.2 |
| 20260831070002 | 62 | 57 | 3.0 | 6.0 | 0.00 | 1.91 | 0.00 | 32 | 1020.1 |
| 20260831065402 | 62 | 57 | 3.0 | 6.0 | 0.00 | 1.91 | 0.00 | 32 | 1020.1 |
| 20260831064502 | 62 | 57 | 1.0 | 4.0 | 0.00 | 1.91 | 0.00 | 32 | 1020.1 |
| 20260831063602 | 62 | 0 | 0.0 | 0.0 | 0.00 | 1.91 | 0.00 | 32 | 1020.1 |
| 20260831062702 | 62 | 0 | 0.0 | 0.0 | 0.00 | 1.91 | 0.00 | 33 | 1020.1 |
| 20260831061802 | 62 | 0 | 0.0 | 0.0 | 0.00 | 1.91 | 0.00 | 33 | 1020.0 |
| 20260831060902 | 62 | 0 | 0.0 | 0.0 | 0.00 | 1.91 | 0.00 | 33 | 1020.0 |
| 20260831060002 | 63 | 57 | 0.0 | 1.0 | 0.00 | 1.91 | 0.00 | 33 | 1020.1 |
| 20260831055402 | 64 | 57 | 1.0 | 4.0 | 0.00 | 1.91 | 1.91 | 33 | 1020.1 |
| 20260831054502 | 64 | 57 | 3.0 | 5.0 | 0.00 | 1.91 | 1.91 | 33 | 1020.1 |
| 20260831053602 | 64 | 57 | 3.0 | 5.0 | 0.00 | 1.91 | 1.91 | 33 | 1020.1 |
| 20260831052702 | 64 | 57 | 2.0 | 4.0 | 0.00 | 1.91 | 1.91 | 32 | 1020.2 |
| 20260831051803 | 64 | 57 | 2.0 | 5.0 | 0.00 | 1.91 | 1.91 | 32 | 1020.1 |
| 20260831050902 | 64 | 57 | 2.0 | 5.0 | 0.00 | 1.91 | 1.91 | 31 | 1020.2 |
| 20260831050002 | 64 | 63 | 3.0 | 5.0 | 0.00 | 1.92 | 1.91 | 31 | 1020.2 |
| 20260831045402 | 64 | 74 | 1.0 | 5.0 | 0.00 | 1.92 | 1.91 | 31 | 1020.2 |
| 20260831044502 | 64 | 87 | 1.0 | 4.0 | 0.00 | 1.94 | 1.91 | 31 | 1020.2 |